Weather History for Dickinson, ND

Change the Weather History Date:

Sunday, August 4, 2013

  Actual Average Record
Temperature  
Mean Temperature 66 °F 71 °F  
Max Temperature 78 °F 86 °F 100 °F (1959)
Min Temperature 54 °F 56 °F 41 °F (1974)
Degree Days  
Heating Degree Days 0 1  
Month to date heating degree days 0 4  
Since 1 June heating degree days 156 175  
Since 1 July heating degree days 32 38  
Cooling Degree Days 1 6  
Month to date cooling degree days 2 24  
Year to date cooling degree days 145 253  
Since 1 June cooling degree days 136 243  
Growing Degree Days 16 (Base 50)    
Moisture  
Dew Point 60 °F    
Average Humidity 80    
Maximum Humidity 100    
Minimum Humidity 60    
Precipitation  
Precipitation 0.12 in 0.05 in 0.59 in (1981)
Month to date precipitation 0.50 0.21  
Year to date precipitation 12.00 10.96  
Sea Level Pressure  
Sea Level Pressure 30.00 in    
Wind  
Wind Speed 8 mph (SSW)    
Max Wind Speed 16 mph    
Max Gust Speed 18 mph    
Visibility 10 miles    
Events Rain , Thunderstorm    
T = Trace of Precipitation, MM = Missing Value Source: NWS Daily Summary

Daily Weather History Graph

Daily Weather History Graph

Search for Another Location

Airport:

Trip Planner

Search our weather history database for the weather conditions in past years. The results will help you decide how hot, cold, wet, or windy it might be!

Date:

Astronomy

Aug. 04, 2013 Rise Set
Actual Time 5:35 AM MDT 8:18 PM MDT
Civil Twilight 5:00 AM MDT 8:53 PM MDT
Nautical Twilight 4:16 AM MDT 9:36 PM MDT
Astronomical Twilight 3:24 AM MDT 10:28 PM MDT
Moon 3:37 AM MDT (8/4) 6:42 PM MDT (8/4)
Length of Visible Light 15h 52m
Length of Day
14h 43m
Waning Crescent, 4% of the Moon is Illuminated
Aug 4
Waning Crescent
Aug 6
New
Aug 14
First Quarter
Aug 20
Full
Aug 28
Last Quarter

Hourly Weather History & Observations

Time (MDT) Temp. Dew Point Humidity Pressure Visibility Wind Dir Wind Speed Gust Speed Precip Events Conditions
12:10 AM 60.8 °F 57.2 °F 88% 30.06 in 5.0 mi SE 34.5 mph 42.6 mph 0.03 in Rain Rain
12:56 AM 62.1 °F 57.9 °F 86% 30.03 in 10.0 mi SE 23.0 mph 34.5 mph 0.06 in   Clear
1:56 AM 61.0 °F 57.0 °F 87% 30.01 in 10.0 mi SE 20.7 mph 31.1 mph N/A   Clear
2:56 AM 61.0 °F 55.9 °F 83% 30.01 in 10.0 mi SSE 17.3 mph - N/A   Clear
3:56 AM 59.0 °F 55.0 °F 87% 30.00 in 10.0 mi SSE 13.8 mph 19.6 mph N/A   Clear
4:56 AM 57.9 °F 55.0 °F 90% 30.00 in 10.0 mi SSE 11.5 mph - N/A   Clear
5:56 AM 57.0 °F 55.0 °F 93% 30.01 in 10.0 mi South 10.4 mph - N/A   Clear
6:41 AM 59.0 °F 55.4 °F 88% 30.05 in 10.0 mi South 16.1 mph 23.0 mph N/A   Mostly Cloudy
6:56 AM 59.0 °F 55.9 °F 90% 30.02 in 10.0 mi South 20.7 mph 25.3 mph N/A   Overcast
7:56 AM 61.0 °F 57.0 °F 87% 30.02 in 10.0 mi South 17.3 mph 28.8 mph N/A   Overcast
8:56 AM 63.0 °F 57.9 °F 84% 30.03 in 10.0 mi SSW 18.4 mph - N/A   Overcast
9:20 AM 64.4 °F 59.0 °F 83% 30.06 in 10.0 mi SW 12.7 mph 20.7 mph N/A   Overcast
9:56 AM 64.0 °F 59.0 °F 84% 30.04 in 10.0 mi North - - N/A   Unknown
11:32 AM 66.2 °F 60.8 °F 83% 30.05 in 10.0 mi SW 9.2 mph - N/A   Overcast
11:56 AM 68.0 °F 61.0 °F 78% 30.01 in 10.0 mi WSW 8.1 mph - N/A   Overcast
12:19 PM 69.8 °F 60.8 °F 73% 30.04 in 10.0 mi West 6.9 mph - N/A   Overcast
12:56 PM 71.1 °F 62.1 °F 73% 30.00 in 10.0 mi WSW 8.1 mph - N/A   Overcast
1:22 PM 71.6 °F 62.6 °F 73% 30.02 in 10.0 mi Variable 5.8 mph - N/A   Mostly Cloudy
1:56 PM 73.9 °F 63.0 °F 68% 29.98 in 10.0 mi WSW 5.8 mph - N/A   Mostly Cloudy
2:56 PM 75.9 °F 63.0 °F 64% 29.96 in 10.0 mi WNW 6.9 mph - N/A   Overcast
3:56 PM 75.0 °F 61.0 °F 62% 29.94 in 10.0 mi West 4.6 mph - N/A   Overcast
4:34 PM 73.4 °F 64.4 °F 73% 29.98 in 8.0 mi WNW 4.6 mph - 0.01 in Rain , Thunderstorm Light Thunderstorms and Rain
4:56 PM 66.9 °F 60.1 °F 79% 29.96 in 10.0 mi South 4.6 mph - 0.05 in Thunderstorm Mostly Cloudy
5:22 PM 68.0 °F 62.6 °F 83% 29.98 in 6.0 mi West 3.5 mph - 0.00 in Rain , Thunderstorm Light Thunderstorms and Rain
5:56 PM 70.0 °F 64.9 °F 84% 29.94 in 10.0 mi SW 3.5 mph - 0.07 in Rain , Thunderstorm Light Rain
6:11 PM 71.6 °F 64.4 °F 78% 29.97 in 10.0 mi Calm Calm - 0.00 in   Mostly Cloudy
6:56 PM 71.1 °F 64.0 °F 78% 29.93 in 10.0 mi Calm Calm - 0.00 in   Mostly Cloudy
7:56 PM 71.1 °F 64.9 °F 81% 29.95 in 10.0 mi NNW 3.5 mph - N/A   Overcast
8:56 PM 64.0 °F 60.1 °F 87% 29.98 in 10.0 mi NNE 9.2 mph - N/A   Clear
9:56 PM 61.0 °F 57.9 °F 90% 29.99 in 10.0 mi Calm Calm - N/A   Clear
10:56 PM 57.9 °F 57.0 °F 97% 29.99 in 9.0 mi Calm Calm - N/A   Clear
11:56 PM 59.0 °F 57.0 °F 93% 29.97 in 9.0 mi SW 3.5 mph - N/A   Clear